TimeEST,TemperatureF,Dew PointF,Humidity,Sea Level PressureIn,VisibilityMPH,Wind Direction,Wind SpeedMPH,Gust SpeedMPH,PrecipitationIn,Events,Conditions,WindDirDegrees,DateUTC
12:04 AM,28.0,24.1,85,29.82,2.0,East,8.1,-,0.00,Snow,Light Snow,100,2013-02-23 05:04:00
12:13 AM,28.0,24.1,85,29.81,1.5,East,11.5,-,0.01,Snow,Light Snow,90,2013-02-23 05:13:00
12:23 AM,28.0,24.1,85,29.81,1.5,East,8.1,-,0.02,Snow,Light Snow,90,2013-02-23 05:23:00
12:47 AM,28.0,24.1,85,29.79,1.5,East,8.1,-,0.03,Snow,Light Snow,100,2013-02-23 05:47:00
12:55 AM,28.0,24.1,85,29.82,1.5,East,6.9,-,0.03,Snow,Light Snow,100,2013-02-23 05:55:00
1:20 AM,28.0,24.1,85,29.79,2.0,ESE,6.9,-,0.01,Snow,Light Snow,110,2013-02-23 06:20:00
1:27 AM,28.0,24.1,85,29.78,1.8,ESE,8.1,-,0.02,Snow,Light Snow,110,2013-02-23 06:27:00
1:35 AM,27.0,24.1,89,29.78,1.8,East,6.9,-,0.02,Snow,Light Snow,100,2013-02-23 06:35:00
1:48 AM,27.0,24.1,89,29.78,1.2,East,8.1,-,0.03,Snow,Light Snow,100,2013-02-23 06:48:00
1:55 AM,28.0,24.1,85,29.80,1.5,East,8.1,-,0.03,Snow,Light Snow,100,2013-02-23 06:55:00
2:39 AM,28.0,24.1,85,29.77,3.0,East,6.9,-,0.02,Snow,Light Snow,100,2013-02-23 07:39:00
2:48 AM,27.0,25.0,92,29.76,2.5,ESE,6.9,-,0.02,Snow,Light Snow,110,2013-02-23 07:48:00
2:55 AM,27.0,25.0,92,29.79,1.8,ESE,4.6,-,0.03,Snow,Light Snow,110,2013-02-23 07:55:00
3:43 AM,27.0,25.0,92,29.74,0.8,East,4.6,-,0.03,Snow,Light Snow,100,2013-02-23 08:43:00
3:51 AM,26.6,24.8,93,29.75,1.0,ESE,4.6,-,0.04,Snow,Light Snow,110,2013-02-23 08:51:00
3:55 AM,27.0,25.0,92,29.77,1.2,ESE,4.6,-,0.04,Snow,Light Snow,110,2013-02-23 08:55:00
4:19 AM,27.0,25.0,92,29.74,1.0,ESE,3.5,-,0.01,Snow,Light Snow,110,2013-02-23 09:19:00
4:55 AM,28.0,25.0,88,29.77,1.5,ESE,4.6,-,0.02,Snow,Light Snow,110,2013-02-23 09:55:00
5:12 AM,28.0,25.0,88,29.73,1.5,SE,4.6,-,0.01,Snow,Light Snow,130,2013-02-23 10:12:00
5:25 AM,27.0,25.0,92,29.73,3.0,SE,4.6,-,0.02,Snow,Light Snow,130,2013-02-23 10:25:00
5:31 AM,27.0,25.0,92,29.74,5.0,SE,5.8,-,0.02,,Overcast,140,2013-02-23 10:31:00
5:55 AM,27.0,25.0,92,29.76,6.0,ESE,5.8,-,0.02,Snow,Light Snow,120,2013-02-23 10:55:00
6:55 AM,27.0,24.1,89,29.75,5.0,SSE,3.5,-,0.00,Snow,Light Snow,150,2013-02-23 11:55:00
7:36 AM,26.1,24.1,92,29.74,3.0,Calm,Calm,-,0.00,Snow,Light Snow,0,2013-02-23 12:36:00
7:55 AM,26.1,23.0,88,29.77,2.5,Calm,Calm,-,0.00,Snow,Light Snow,0,2013-02-23 12:55:00
8:10 AM,26.1,24.1,92,29.74,2.0,Calm,Calm,-,0.00,Snow,Light Snow,0,2013-02-23 13:10:00
8:38 AM,27.0,24.1,89,29.74,3.0,Calm,Calm,-,0.00,Snow,Light Snow,0,2013-02-23 13:38:00
8:55 AM,27.0,24.1,89,29.77,4.0,Calm,Calm,-,0.00,Snow,Light Snow,0,2013-02-23 13:55:00
9:42 AM,27.0,25.0,92,29.74,4.0,Calm,Calm,-,0.00,Snow,Light Snow,0,2013-02-23 14:42:00
9:55 AM,28.0,25.0,88,29.77,4.0,Calm,Calm,-,0.00,Snow,Light Snow,0,2013-02-23 14:55:00
10:09 AM,28.0,25.0,88,29.74,3.0,Calm,Calm,-,0.00,Snow,Light Snow,0,2013-02-23 15:09:00
10:55 AM,28.0,25.0,88,29.76,2.0,SSW,3.5,-,0.00,Snow,Light Snow,210,2013-02-23 15:55:00
10:59 AM,28.0,25.0,88,29.74,1.8,SSW,4.6,-,0.00,Snow,Light Snow,210,2013-02-23 15:59:00
11:04 AM,28.0,24.1,85,29.74,2.0,SSW,3.5,-,0.00,Snow,Light Snow,210,2013-02-23 16:04:00
11:12 AM,28.9,24.1,82,29.74,6.0,SSW,5.8,-,0.00,Snow,Light Snow,210,2013-02-23 16:12:00
11:55 AM,28.9,25.0,85,29.77,4.0,SSW,4.6,-,0.00,,Overcast,200,2013-02-23 16:55:00
12:22 PM,30.9,24.1,76,29.74,10.0,South,4.6,-,N/A,,Mostly Cloudy,180,2013-02-23 17:22:00
12:35 PM,30.0,24.1,79,29.74,10.0,South,4.6,-,N/A,,Overcast,190,2013-02-23 17:35:00
12:55 PM,30.9,24.1,76,29.76,10.0,SSW,3.5,-,N/A,,Overcast,210,2013-02-23 17:55:00
1:55 PM,30.9,25.0,79,29.76,2.0,Calm,Calm,-,0.00,Snow,Light Snow,0,2013-02-23 18:55:00
2:21 PM,30.9,25.0,79,29.74,1.2,Calm,Calm,-,0.01,Snow,Light Snow,0,2013-02-23 19:21:00
2:35 PM,30.9,25.0,79,29.74,3.0,Calm,Calm,-,0.01,Snow,Light Snow,0,2013-02-23 19:35:00
2:55 PM,30.9,25.0,79,29.76,2.0,Calm,Calm,-,0.01,Snow,Light Snow,0,2013-02-23 19:55:00
3:31 PM,30.9,26.1,82,29.74,3.0,Calm,Calm,-,0.00,Snow,Light Snow,0,2013-02-23 20:31:00
3:41 PM,30.9,26.1,82,29.75,2.5,Calm,Calm,-,0.00,Snow,Light Snow,0,2013-02-23 20:41:00
3:50 PM,30.2,26.6,86,29.75,1.0,Calm,Calm,-,0.01,Snow,Light Snow,0,2013-02-23 20:50:00
3:55 PM,30.9,26.1,82,29.77,1.2,Calm,Calm,-,0.01,Snow,Light Snow,0,2013-02-23 20:55:00
4:21 PM,30.0,26.1,85,29.76,1.0,Calm,Calm,-,0.01,Snow,Light Snow,0,2013-02-23 21:21:00
4:29 PM,30.0,27.0,88,29.76,0.8,Calm,Calm,-,0.02,Snow,Light Snow,0,2013-02-23 21:29:00
4:55 PM,30.0,26.1,85,29.78,0.8,Calm,Calm,-,0.04,Snow,Light Snow,0,2013-02-23 21:55:00
5:13 PM,30.0,27.0,88,29.76,0.8,West,4.6,-,0.01,Snow,Light Snow,270,2013-02-23 22:13:00
5:31 PM,30.0,26.1,85,29.76,1.2,West,4.6,-,0.01,Snow,Light Snow,260,2013-02-23 22:31:00
5:38 PM,30.0,25.0,82,29.76,2.0,West,3.5,-,0.01,Snow,Light Snow,260,2013-02-23 22:38:00
5:47 PM,30.0,25.0,82,29.77,5.0,West,3.5,-,0.01,Snow,Light Snow,260,2013-02-23 22:47:00
5:55 PM,30.0,24.1,79,29.79,6.0,West,4.6,-,0.01,,Haze,270,2013-02-23 22:55:00
6:08 PM,28.9,24.1,82,29.77,8.0,Calm,Calm,-,N/A,,Overcast,0,2013-02-23 23:08:00
6:17 PM,28.9,24.1,82,29.77,7.0,WSW,3.5,-,N/A,,Overcast,250,2013-02-23 23:17:00
6:34 PM,28.9,24.1,82,29.77,10.0,WSW,3.5,-,N/A,,Overcast,250,2013-02-23 23:34:00
6:46 PM,28.9,24.1,82,29.78,10.0,WSW,4.6,-,N/A,,Overcast,240,2013-02-23 23:46:00
6:55 PM,28.9,24.1,82,29.81,10.0,WSW,4.6,-,N/A,,Overcast,240,2013-02-23 23:55:00
7:55 PM,28.0,23.0,81,29.81,10.0,WSW,4.6,-,N/A,,Overcast,240,2013-02-24 00:55:00
8:55 PM,27.0,21.9,81,29.83,10.0,WSW,3.5,-,N/A,,Overcast,250,2013-02-24 01:55:00
9:55 PM,25.0,21.0,85,29.83,6.0,West,3.5,-,N/A,,Scattered Clouds,280,2013-02-24 02:55:00
10:55 PM,23.0,19.9,88,29.83,9.0,WNW,3.5,-,N/A,,Overcast,290,2013-02-24 03:55:00
11:22 PM,19.9,17.1,89,29.80,1.5,WSW,4.6,-,N/A,,Mostly Cloudy,240,2013-02-24 04:22:00
11:32 PM,21.0,17.1,85,29.80,3.0,Calm,Calm,-,N/A,,Scattered Clouds,0,2013-02-24 04:32:00
11:55 PM,21.0,17.1,85,29.83,6.0,Calm,Calm,-,N/A,,Scattered Clouds,0,2013-02-24 04:55:00